Pottstown, PA

1:36 AM EDT on October 21, 2019 (GMT -0400)
Pottstown Limerick

Weather History for KPTW - September, 2019

Change the Weather History Date:

Wednesday, September 18, 2019

  Actual Average (KRDG) Record (KRDG)
Temperature  
Mean Temperature 60 °F -  
Max Temperature 72 °F 73 °F 94 °F (1991)
Min Temperature 48 °F 53 °F 39 °F (1990)
Degree Days  
Heating Degree Days 6    
Growing Degree Days 10 (Base 50)    
Moisture  
Dew Point 50 °F    
Average Humidity 74    
Maximum Humidity 100    
Minimum Humidity 44    
Precipitation  
Precipitation 0.00 in - - ()
Sea Level Pressure  
Sea Level Pressure 30.24 in    
Wind  
Wind Speed 2 mph (NE)    
Max Wind Speed 10 mph    
Max Gust Speed -    
Visibility 10 miles    
Events      
Averages and records for this station are not official NWS values.
T = Trace of Precipitation, MM = Missing Value Source: NWS Daily Summary

Daily Weather History Graph

Daily Weather History Graph

Search for Another Location

Airport or City:

Astronomy

Sep. 18, 2019 Rise Set
Actual Time 6:45 AM EDT 7:06 PM EDT
Civil Twilight 6:18 AM EDT 7:33 PM EDT
Nautical Twilight 5:46 AM EDT 8:05 PM EDT
Astronomical Twilight 5:13 AM EDT 8:38 PM EDT
Moon 9:38 PM EDT (9/18) 10:47 AM EDT (9/18)
Length of Visible Light 13h 15m
Length of Day
12h 20m
Waning Gibbous, 82% of the Moon is Illuminated
Sep 18
Waning Gibbous
Sep 21
Last Quarter
Sep 28
New
Oct 5
First Quarter
Oct 13
Full

Hourly Weather History & Observations

Time (EDT) Temp. Dew Point Humidity Pressure Visibility Wind Dir Wind Speed Gust Speed Precip Events Conditions
12:54 AM 53.1 °F 51.1 °F 93% 30.17 in 10.0 mi Calm Calm - N/A   Clear
1:54 AM 51.1 °F 50.0 °F 96% 30.17 in 10.0 mi Calm Calm - N/A   Clear
2:54 AM 50.0 °F 50.0 °F 100% 30.17 in 10.0 mi Calm Calm - N/A   Clear
3:54 AM 48.9 °F 48.9 °F 100% 30.18 in 10.0 mi Calm Calm - N/A   Clear
4:54 AM 48.0 °F 48.0 °F 100% 30.19 in 10.0 mi Calm Calm - N/A   Clear
5:54 AM 48.0 °F 48.0 °F 100% 30.20 in 10.0 mi Calm Calm - N/A   Clear
6:54 AM 48.0 °F 46.9 °F 96% 30.22 in 10.0 mi Calm Calm - N/A   Clear
7:54 AM 53.1 °F 48.9 °F 86% 30.24 in 9.0 mi Calm Calm - N/A   Clear
8:54 AM 57.9 °F 50.0 °F 75% 30.25 in 10.0 mi NE 8.1 mph - N/A   Clear
9:54 AM 60.1 °F 52.0 °F 75% 30.25 in 10.0 mi ENE 4.6 mph - N/A   Partly Cloudy
10:35 AM 63.0 °F 54.0 °F 72% 30.26 in 10.0 mi East 3.5 mph - N/A   Mostly Cloudy
10:54 AM 64.0 °F 54.0 °F 70% 30.26 in 10.0 mi NNE 5.8 mph - N/A   Overcast
11:34 AM 63.0 °F 54.0 °F 72% 30.26 in 10.0 mi NNE 6.9 mph - N/A   Mostly Cloudy
11:54 AM 64.0 °F 53.1 °F 67% 30.25 in 10.0 mi NNE 6.9 mph - N/A   Mostly Cloudy
12:54 PM 66.9 °F 51.1 °F 57% 30.24 in 9.0 mi NNE 5.8 mph - N/A   Scattered Clouds
1:54 PM 69.1 °F 50.0 °F 51% 30.23 in 10.0 mi ENE 6.9 mph - N/A   Scattered Clouds
2:54 PM 71.1 °F 48.9 °F 45% 30.23 in 10.0 mi ENE 5.8 mph - N/A   Partly Cloudy
3:54 PM 70.0 °F 48.9 °F 47% 30.23 in 10.0 mi NE 10.4 mph - N/A   Partly Cloudy
4:54 PM 71.1 °F 48.0 °F 44% 30.22 in 10.0 mi Variable 4.6 mph - N/A   Partly Cloudy
5:54 PM 69.1 °F 46.9 °F 45% 30.23 in 10.0 mi NNE 8.1 mph - N/A   Clear
6:54 PM 64.9 °F 48.0 °F 54% 30.24 in 10.0 mi Calm Calm - N/A   Clear
7:54 PM 59.0 °F 48.9 °F 69% 30.26 in 10.0 mi Calm Calm - N/A   Clear
8:54 PM 59.0 °F 48.9 °F 69% 30.27 in 10.0 mi ENE 3.5 mph - N/A   Clear
9:54 PM 57.9 °F 48.0 °F 70% 30.29 in 10.0 mi Calm Calm - N/A   Clear
10:54 PM 57.0 °F 48.0 °F 72% 30.31 in 10.0 mi Calm Calm - N/A   Clear
11:54 PM 53.1 °F 50.0 °F 89% 30.32 in 10.0 mi Calm Calm - N/A   Clear